Flag for U.S.A. Weather past 2 weeks in Norfolk, Virginia, U.S.A.

Now
88 °F

Scattered clouds.


Feels Like: 87 °F
Forecast: 65 / 87 °F
Wind: 7 mph from North

Location: Norfolk Naval Air Station

Current Time: May 25, 2015 at 4:30:42 PM

Latest Report: May 25, 2015 at 3:59 PM


Visibility: 10 mi

Pressure: 30.27 "Hg

Humidity: 35%

Dew point: 57 °F

Location of NorfolkLocation

Historic Weather in Norfolk — Graph

°F

Norfolk temperature yesterday

Maximum temperature yesterday: 86 °F (at 4:59 PM)
Minimum temperature yesterday: 60 °F (at 4:59 AM)
Average temperature yesterday: 74 °F

Past Weeks' High & Low Weather Summary

 TemperatureHumidityPressure
High94 °F (May 18, 3:59 PM)82% (May 11, 6:01 AM)30.47 "Hg (May 11, 6:01 AM)
Low56 °F (May 15, 2:59 AM)32% (May 25, 2:59 PM)29.80 "Hg (May 21, 3:59 PM)
Average74 °F57%30.16 "Hg
* Reported May 10 2:59 PM — May 25 2:59 PM, Norfolk, Weather by CustomWeather, © 2015

Note: Actual official high and low records may vary slightly from our data, if they occured in-between our weather recording intervals... More about our weather records

Advertising

Norfolk weather history for previous 24 hours

 ConditionsComfort  
Time TempWeatherWind HumidityBarometerVisibility
2:59 PM
Mon, May 25
87 °FScattered clouds.8 mph32%30.29 "Hg10 mi
1:59 PM87 °FScattered clouds.9 mph35%30.31 "Hg10 mi
12:59 PM85 °FScattered clouds.9 mph39%30.33 "Hg10 mi
11:59 AM84 °FScattered clouds.8 mph43%30.34 "Hg10 mi
10:59 AM81 °FPassing clouds.10 mph47%30.36 "Hg10 mi
9:59 AM79 °FPassing clouds.8 mph54%30.37 "Hg10 mi
8:59 AM76 °FScattered clouds.9 mph58%30.36 "Hg10 mi
7:59 AM74 °FScattered clouds.6 mph62%30.36 "Hg10 mi
6:59 AM70 °FScattered clouds.7 mph68%30.35 "Hg10 mi
5:59 AM68 °FClear.7 mph70%30.34 "Hg10 mi
4:59 AM69 °FPassing clouds.7 mph68%30.33 "Hg10 mi
3:59 AM70 °FPassing clouds.6 mph64%30.33 "Hg10 mi
2:59 AM71 °FPassing clouds.7 mph61%30.32 "Hg10 mi
1:59 AM72 °FPassing clouds.10 mph57%30.32 "Hg10 mi
12:59 AM73 °FPassing clouds.7 mph53%30.33 "Hg10 mi
11:59 PM
Sun, May 24
73 °FPassing clouds.8 mph53%30.34 "Hg10 mi
10:59 PM75 °FClear.9 mph48%30.34 "Hg10 mi
9:59 PM75 °FPassing clouds.7 mph52%30.34 "Hg10 mi
8:59 PM76 °FScattered clouds.10 mph52%30.33 "Hg10 mi
7:59 PM79 °FScattered clouds.10 mph45%30.32 "Hg10 mi
6:59 PM82 °FBroken clouds.13 mph43%30.31 "Hg10 mi
5:59 PM83 °FPartly sunny.5 mph40%30.31 "Hg10 mi
4:59 PM86 °FPartly sunny.7 mph35%30.32 "Hg10 mi
Weather by CustomWeather, © 2015

See weather overviewHow to use our weather pages